Regional Weather Roundup
Issued by NWS Kansas City/Pleasant Hill, MO

Home | Current Version | Previous Version | Graphics & Text | Print | Product List | Glossary Off
Versions: 1 2 3 4 5 6 7 8 9 10 11 12 13 14 15 16 17 18 19 20 21 22 23 24 25 26 27 28 29 30 31 32 33 34 35 36 37 38 39 40 41 42 43 44 45 46 47 48 49 50

000
ASUS43 KEAX 040310
RWREAX

WEATHER ROUNDUP FOR EASTERN KANSAS AND NORTHWEST MISSOURI
NATIONAL WEATHER SERVICE KANSAS CITY/PLEASANT HILL MO
1000 PM CDT FRI JUL 03 2015

KSZ040-057-103>105-MOZ028-029-037-043-040400-
...KANSAS CITY METROPOLITAN AREA...

CITY           SKY/WX    TMP DP  RH WIND       PRES   REMARKS
K.C. INTL      CLEAR     69  61  75 NE5       29.96R
K.C. DOWNTOWN  CLEAR     72  60  66 N5        29.94R
LEES SUMMIT    CLEAR     72  60  66 NE5       29.96R
OLATHE - IXD   CLEAR     70  58  65 NE3       29.97R
OLATHE - OJC   CLEAR     71  57  61 NE3       29.95R
LAWRENCE       CLEAR     65  61  87 CALM      29.96R

$$

MOZ001>008-011>017-020>025-030>033-038>040-044>046-053-054-040400-
...NORTHERN AND CENTRAL MISSOURI...

CITY           SKY/WX    TMP DP  RH WIND       PRES   REMARKS
ST. JOSEPH     CLEAR     67  62  84 N3        29.96R
MOSBY          CLEAR     68  61  77 CALM      29.96R
HARRISONVILLE  CLEAR     68  63  83 CALM      29.98R
WARRENSBURG    CLEAR     68  61  77 CALM      29.95R
WHITEMAN AFB   CLEAR     68  63  84 CALM      29.94R
CLINTON        CLEAR     70  64  83 NE3       29.94R
SEDALIA        CLEAR     70  65  84 CALM      29.97R
WARSAW         FAIR      66  64  94 CALM      29.96R
CHILLICOTHE      N/A     66  64  93 CALM      29.98R
KIRKSVILLE     CLEAR     63  61  93 CALM      29.97R

$$

MOZ041-047>049-056>058-063>065-088>090-097-040400-
...EASTERN AND SOUTHERN MISSOURI...

CITY           SKY/WX    TMP DP  RH WIND       PRES   REMARKS
ST. LOUIS INTL PTCLDY    76  66  71 NE3       29.92R
SPIRIT OF STL  CLEAR     69  67  93 CALM      29.91R
COLUMBIA       CLEAR     69  63  81 N5        29.95R
JEFFERSON CITY   N/A     71  63  75 N5        29.93
MEXICO         CLEAR     70  68  94 N3        29.94R
ROLLA          CLEAR     67  64  90 CALM      29.93R
LEBANON        CLEAR     66  63  88 CALM      29.96R
OSAGE BEACH    CLEAR     66  63  88 CALM      29.94R
SPRINGFIELD    CLEAR     74  68  81 NE6       29.95R
BRANSON        CLEAR     70  68  94 CALM      29.96R
JOPLIN         CLEAR     72  70  93 E3        29.94R
WEST PLAINS    PTCLDY    70  67  90 N3        29.94R
MALDEN         LGT RAIN  73  70  88 CALM      29.89R

$$

IAZ060-094-KSZ022-034>040-054-083-096-NEZ052-066-093-040400-
...KANSAS...SOUTHEAST NEBRASKA AND IOWA...

CITY           SKY/WX    TMP DP  RH WIND       PRES   REMARKS
TOPEKA         CLEAR     69  62  78 CALM      29.95R
MANHATTAN      CLEAR     68  61  78 CALM      29.96R
EMPORIA        CLEAR     70  62  76 NE3       29.95R
CHANUTE        CLEAR     73  67  81 E5        29.94R
WICHITA        CLEAR     75  63  66 NE7       29.95R
OMAHA          PTCLDY    69  58  67 CALM      29.97R
LINCOLN        PTCLDY    69  61  75 CALM      29.98R
FALLS CITY     CLEAR     69  61  75 N3        29.96R
LAMONI         CLEAR     69  57  65 CALM      29.97R
DES MOINES     PTCLDY    71  59  65 S5        29.96R

$$



USA.gov is the U.S. government's official web portal to all federal, state and local government web resources and services.